Accueil
METAR-TAF:

METAR-TAF

Aéroports :

Aéroport d'Aurillac

Aurillac, France

latitude: 44-53N, longitude: 002-25E, altitude: 639 m

Observation

Le bulletin a été fait il y a 21 minutes, à 22:30 UTC
Vent 1 kt de sud/sud-est
Température 0°C
Humidité 93%
Pression 1017 hPa
Visibilité: 9000 m

METAR: LFLW 082230Z AUTO 16001KT 9000 NSC 00/M01 Q1017

Heure: 23:51 (22:51 UTC)

Prévision

Le bulletin a été fait il y a 8 heures et 51 minutes, à 14:00 UTC
Prévision valable du 08 à 15 UTC au 08 à 24 UTC
Vent 6 kt de ouest/nord-ouest
Visibilité 10 km ou plus
Quelques nuages à une hauteur de 3500 ft, Cumulus congestus.
Nuages fragmentés à une hauteur de 8000 ft
Evoluant progressivement
du 08 à 16 UTC au 08 à 18 UTC
Nuages épars à une hauteur de 4000 ft

TAF: LFLW 081400Z 0815/0824 30006KT 9999 FEW035TCU BKN080 BECMG 0816/0818 SCT040

Observations et prévisions météorologiques de plus de 4000 aéroports (messages METAR et TAF).

Les stations disponibles sont représentées par des disques jaunes et rouges sur la carte.

Passer la souris dessus pour voir le nom de la station.

Cliquer dessus pour voir les observations et prévisions météorologiques.

Pour changer de carte: cliquez sur les boutons verts avec une croix noire pour zoomer, sur le bouton vert avec un tiret pour effectuer un zoom arrière, ou sur les flèches vertes pour les cartes adjacentes.


METAR-TAF: